World > North America > United States > Mississippi > Thyatira  

Thyatira, MS Hourly Weather Updates

Feedback E-mail the Weather

Quick WX

Thyatira, MS Weather Maps

°F °C°F °C
Thyatira Weather Map
UTC Time: 3/5/2024, 11:01
Your Time:

Thyatira, MS Regional Weather

Expires:202403051100;;436854
ASUS44 KJAN 051010
RWRMS 

MISSISSIPPI HOURLY WEATHER ROUNDUP
NATIONAL WEATHER SERVICE JACKSON MS
400 AM CST TUE MAR 05 2024

NOTE: "FAIR: INDICATES FEW OR NO CLOUDS BELOW 12,000 FEET WITH NO
SIGNIFICANT WEATHER AND/OR OBSTRUCTIONS TO VISIBILITY.


MSZ001>002-007>008-010>013-018>021-025>028-034>036-051100-
NORTHWEST MISSISSIPPI
  
CITY           SKY/WX    TMP DP  RH WIND       PRES   REMARKS
BATESVILLE     HVY RAIN  59  59 100 CALM      29.89S                  
CLARKSDALE       N/A     63 N/A N/A CALM      29.90R                  
GREENWOOD      MOCLDY    67  63  87 S5        29.88F                  
GREENVILLE     MOCLDY    62  59  90 CALM      29.87S                  
OLIVE BRANCH   CLOUDY    63  61  94 S9        29.88F                  
OXFORD         CLOUDY    63  63 100 E3        29.92S                  
TUNICA         CLOUDY    58  58 100 SE5       29.89S                  
WINONA         PTCLDY    61  61  99 SE5       29.89F FOG              
$$


SKY/WX - Weather  TMP - Temperature  DP - Dew Point  RH - Humidity
WIND - Wind Direction/Speed PRES - Barometric Pressure VSB - Visibility
WCI - Wind Chill Index E13G22 Wind - East Wind 13 mph/Gusts of 22 mph

Trending Headlines

Trending Entertainment Headlines

Thyatira Radar Loop

Use the map search tool if you want to place a location marker on the radar map...

Thyatira Quick Facts

National Two Day Weather Forecast


E-mail the Thyatira Weather Forecast

Voice your opinion or tell us about page issues...